International Skating Union - Official Site

ISU World Cup Heerenveen
December 11-13, 2015

Draw | Lap Times | Index | World Cup

Referee: Hanjo  HEIDEMAN  (NED)
Starter: Ole Herman  SÖRLI  (NOR)
StartTime: EndTime: Air Temp: Ice Temp: Humidity:
16:45 17:02 15.8 ℃ -12.2 ℃ 38%
Result Team Pursuit Ladies
Rankings as of Dec 13 2015 6:02PM
Rank: No.: Team: Nation: Time: Behind: Points:
Total 8
1 7 Japan (240) Ayaka Kikuchi (245) Nana Takagi (244) Miho Takagi (243) Misaki Oshigiri JPN JPN 2:59.580.5 - 18.86 - (18.8)
1.0 - 33.40 - (14.5)
1.5 - 47.74 - (14.3)
2.0 - 1:02.01 - (14.2)
2.5 - 1:16.48 - (14.4)
3.0 - 1:30.82 - (14.3)
3.5 - 1:45.18 - (14.3)
4.0 - 1:59.85 - (14.6)
4.5 - 2:14.59 - (14.7)
5.0 - 2:29.76 - (15.1)
5.5 - 2:44.68 - (14.9)
6.0 - 2:59.58 - (14.9)
100
2 10 Netherlands (263) Marrit Leenstra (257) Antoinette de Jong (259) Linda de Vries (265) Irene Schouten NED NED 3:01.260.5 - 18.72 - (18.7)
1.0 - 32.89 - (14.1)
1.5 - 46.96 - (14.0)
2.0 - 1:01.17 - (14.2)
2.5 - 1:15.49 - (14.3)
3.0 - 1:30.11 - (14.6)
3.5 - 1:44.57 - (14.4)
4.0 - 1:59.31 - (14.7)
4.5 - 2:14.05 - (14.7)
5.0 - 2:29.59 - (15.5)
5.5 - 2:45.38 - (15.7)
6.0 - 3:01.26 - (15.8)
1.68 80
3 8 Poland (278) Natalia Czerwonka (280) Katarzyna Wozniak (282) Luiza Zlotkowska (279) Aleksandra Goss POL POL 3:01.510.5 - 18.97 - (18.9)
1.0 - 33.33 - (14.3)
1.5 - 47.48 - (14.1)
2.0 - 1:01.73 - (14.2)
2.5 - 1:16.07 - (14.3)
3.0 - 1:30.68 - (14.6)
3.5 - 1:45.69 - (15.0)
4.0 - 2:00.59 - (14.9)
4.5 - 2:15.73 - (15.1)
5.0 - 2:30.86 - (15.1)
5.5 - 2:46.05 - (15.1)
6.0 - 3:01.51 - (15.4)
1.93 70
4 6 Russia (291) Natalya Voronina (287) Elizaveta Kazelina (285) Olga Graf (289) Margarita Ryzhova RUS RUS 3:03.110.5 - 19.24 - (19.2)
1.0 - 33.48 - (14.2)
1.5 - 47.82 - (14.3)
2.0 - 1:02.18 - (14.3)
2.5 - 1:16.79 - (14.6)
3.0 - 1:31.54 - (14.7)
3.5 - 1:46.46 - (14.9)
4.0 - 2:01.10 - (14.6)
4.5 - 2:16.22 - (15.1)
5.0 - 2:31.57 - (15.3)
5.5 - 2:47.25 - (15.6)
6.0 - 3:03.11 - (15.8)
3.53 60
5 5 Canada (206) Ivanie Blondin (211) Josie Spence (213) Isabelle Weidemann (212) Brianne Tutt CAN CAN 3:04.170.5 - 19.62 - (19.6)
1.0 - 34.04 - (14.4)
1.5 - 48.34 - (14.3)
2.0 - 1:02.92 - (14.5)
2.5 - 1:17.72 - (14.7)
3.0 - 1:32.91 - (15.1)
3.5 - 1:48.04 - (15.1)
4.0 - 2:03.04 - (15.0)
4.5 - 2:18.12 - (15.0)
5.0 - 2:33.37 - (15.2)
5.5 - 2:48.89 - (15.5)
6.0 - 3:04.17 - (15.2)
4.59 50
6 9 Germany (232) Gabriele Hirschbichler (233) Bente Kraus (234) Claudia Pechstein (231) Roxanne Dufter GER GER 3:05.440.5 - 19.18 - (19.1)
1.0 - 33.70 - (14.5)
1.5 - 48.29 - (14.5)
2.0 - 1:03.24 - (14.9)
2.5 - 1:18.30 - (15.0)
3.0 - 1:33.50 - (15.2)
3.5 - 1:48.95 - (15.4)
4.0 - 2:04.06 - (15.1)
4.5 - 2:19.43 - (15.3)
5.0 - 2:34.68 - (15.2)
5.5 - 2:50.04 - (15.3)
6.0 - 3:05.44 - (15.3)
5.86 45
7 3 China (214) Jiachen Hao (217) Jing Liu (221) Xin Zhao CHN CHN 3:05.600.5 - 19.57 - (19.5)
1.0 - 34.62 - (15.0)
1.5 - 49.29 - (14.6)
2.0 - 1:04.14 - (14.8)
2.5 - 1:18.93 - (14.7)
3.0 - 1:34.05 - (15.1)
3.5 - 1:49.22 - (15.1)
4.0 - 2:04.76 - (15.5)
4.5 - 2:19.92 - (15.1)
5.0 - 2:35.37 - (15.4)
5.5 - 2:50.43 - (15.0)
6.0 - 3:05.60 - (15.1)
6.01 40
8 2 Czech Republic (222) Eliska Drimalova (226) Nikola Zdráhalová (224) Natalie Kerschbaummayr (225) Martina Sábliková CZE CZE 3:21.920.5 - 20.10 - (20.1)
1.0 - 35.56 - (15.4)
1.5 - 50.97 - (15.4)
2.0 - 1:06.18 - (15.2)
2.5 - 1:21.78 - (15.5)
3.0 - 1:37.60 - (15.8)
3.5 - 1:54.41 - (16.8)
4.0 - 2:11.45 - (17.0)
4.5 - 2:29.00 - (17.5)
5.0 - 2:46.66 - (17.6)
5.5 - 3:04.14 - (17.4)
6.0 - 3:21.92 - (17.7)
22.34 35